Temperature
17 17 17 17 17 17 17 17 17 17 17 17 17 17 17 17 17 17 17 16 16 16 16 16 16 16 15 15 15 15 15 15 15 15 14 14 14 14
17 17 17 17 17 17 17 17 17 17 17 17 17 17 17 17 17 17 16 16 16 16 16 15 15 15 15 15 15 15 15 15 14 14 14 14 14 14
16 16 17 17 17 17 17 17 17 17 17 17 17 17 17 17 17 17 16 16 16 16 16 15 15 15 15 15 15 15 15 14 14 14 14 14 14 14
16 16 16 16 16 16 16 16 16 16 16 16 16 16 16 16 16 16 16 16 16 15 15 15 15 15 15 15 15 14 14 14 14 14 14 14 13 13
16 16 16 16 16 16 16 16 16 16 16 16 16 16 16 16 16 16 15 15 15 15 15 15 15 15 15 15 14 14 14 14 14 13 13 13 13 13
16 16 15 15 15 15 15 15 15 15 15 15 15 15 15 15 15 15 15 15 15 14 14 14 14 14 14 14 14 14 14 13 13 13 13 13 13 12
15 15 15 15 15 15 15 15 15 15 15 15 15 15 15 14 14 14 14 14 14 14 14 13 13 13 13 13 13 13 13 13 12 12 12 12 12 12
15 15 15 15 15 15 14 14 14 14 14 14 14 14 14 13 14 14 13 13 13 13 13 12 12 12 12 12 12 12 12 12 12 11 11 11 11 11
14 14 14 14 14 14 14 14 14 14 13 13 13 13 13 13 13 13 13 12 12 12 12 12 12 11 11 11 11 11 11 11 11 11 11 10 10 10
14 14 14 14 14 14 14 13 13 13 13 13 12 12 12 12 12 12 12 12 11 11 11 11 11 11 10 10 10 10 10 10 10 10 10 10 9 9
13 13 13 13 13 13 13 13 13 12 12 12 11 11 11 11 11 11 11 11 10 10 10 10 10 10 10 10 9 9 9 9 9 9 9 9 9 9
13 12 12 12 12 12 12 12 12 11 11 11 11 10 10 10 10 10 10 10 10 9 9 9 9 9 9 9 8 8 8 8 8 8 8 8 8 8
12 12 12 11 11 11 11 11 11 11 10 10 10 10 9 9 9 9 9 9 9 8 8 8 8 8 8 8 8 8 7 7 8 7 7 7 7 7
11 11 11 11 10 10 10 10 10 10 9 9 9 9 8 8 8 8 8 8 8 7 7 7 7 7 7 7 7 7 7 7 7 7 7 6 6 6
10 10 10 10 10 9 9 9 9 9 8 8 8 8 7 7 7 7 7 7 7 7 6 6 6 6 6 6 6 6 6 6 6 6 6 6 6 6
9 9 9 9 8 8 8 8 8 8 7 7 7 7 7 7 7 6 6 6 6 6 6 6 6 6 6 6 6 5 5 5 5 5 5 5 5 5
9 8 8 8 8 7 7 7 7 7 7 7 6 6 6 6 6 6 5 5 5 5 5 5 5 5 5 5 5 5 5 5 5 5 5 5 5 5
8 8 8 7 7 7 7 6 6 6 6 6 6 6 5 5 5 5 5 5 5 5 5 5 5 5 5 5 4 4 4 4 4 4 4 4 4 4
8 7 7 7 6 6 6 6 6 5 5 5 5 5 5 5 4 4 4 4 4 4 4 4 4 4 4 4 4 4 4 4 4 4 4 4 4 4
7 6 6 6 6 6 5 5 5 5 5 5 4 4 4 4 4 4 4 3 3 3 3 3 3 3 3 3 3 3 3 3 3 3 4 4 4 3
6 6 6 5 5 5 5 5 5 5 4 4 4 4 4 3 3 3 3 3 3 3 3 3 3 3 3 3 3 3 3 3 3 3 3 3 3 3
6 5 5 5 5 5 5 4 4 4 4 4 3 3 3 3 3 3 3 3 3 3 2 3 3 3 3 3 3 3 3 3 3 3 3 3 3 3
5 5 5 5 5 4 4 4 4 4 3 3 3 3 3 3 3 2 2 2 2 2 2 2 2 2 2 2 3 3 3 3 3 3 3 3 3 2
Wind_Speed
4 4 3 2 2 2 3 4 4 3 4 4 2 3 6 8 10 11 11 14 17 18 18 18 18 17 17 16 16 15 14 14 13 13 12 12 12 12
4 4 3 2 1 1 2 2 3 4 4 3 3 3 2 5 9 10 10 11 14 15 16 16 16 17 17 17 16 15 14 13 13 12 12 11 11 11
3 4 4 3 2 1 1 2 2 3 3 3 2 2 1 1 2 6 7 7 8 12 13 14 15 15 15 15 15 14 13 12 12 11 11 10 10 10
5 4 4 3 3 2 2 1 2 2 3 3 2 1 1 1 1 2 2 4 6 8 10 12 13 13 13 13 12 12 12 12 11 10 10 9 9 10
5 4 4 3 3 2 2 2 2 2 2 3 2 1 1 1 1 1 1 1 1 2 4 7 8 9 9 10 10 10 10 9 9 9 9 9 9 9
3 4 3 3 4 3 2 2 2 1 1 2 1 1 0 1 2 1 1 1 1 2 3 3 1 1 3 4 6 7 8 7 7 7 7 8 8 8
2 2 2 3 3 3 2 2 2 2 1 1 1 1 1 1 0 0 1 1 1 2 2 3 3 3 3 2 2 3 4 5 6 6 7 7 8 8
3 2 2 2 2 3 3 4 4 3 3 2 1 1 0 0 0 0 1 1 1 2 2 2 2 2 3 3 3 3 2 2 3 4 6 7 7 8
2 2 1 1 2 2 3 4 4 4 3 3 2 2 1 1 1 1 1 1 0 2 1 1 2 2 3 4 5 5 5 5 5 5 6 6 7 7
3 3 3 2 2 3 4 4 4 4 3 2 3 2 1 1 1 1 1 2 1 3 3 1 2 2 2 4 5 6 7 7 7 6 6 6 7 7
4 4 4 3 4 6 7 7 6 4 8 10 10 9 9 8 5 3 3 3 2 2 3 2 2 2 2 2 5 8 8 7 7 6 6 7 7 7
5 5 7 6 6 7 6 6 6 3 5 6 7 8 8 9 10 6 3 3 2 1 3 2 2 2 3 3 4 8 9 9 8 6 7 7 7 5
4 4 4 9 10 10 8 6 6 5 5 6 5 5 6 6 7 8 6 3 3 1 2 2 2 2 1 3 3 4 6 6 7 7 8 9 8 5
5 4 5 10 12 12 9 10 11 8 6 6 6 5 5 4 4 7 10 9 6 3 3 3 1 1 1 2 3 4 4 6 5 4 7 9 9 8
6 8 10 11 11 10 12 12 9 7 7 7 6 4 3 4 5 6 8 9 10 10 10 7 3 1 1 0 2 3 3 4 5 4 4 5 4 4
7 9 13 14 11 10 9 8 6 6 6 5 4 3 4 5 5 4 4 4 5 6 10 12 8 3 2 1 0 2 2 3 4 4 3 4 5 5
7 7 7 7 7 7 6 7 6 6 6 5 5 5 5 5 4 4 4 4 4 4 5 6 9 7 2 0 1 2 3 3 3 4 3 4 4 5
9 7 6 6 6 6 6 6 6 6 5 5 5 5 4 4 4 4 3 3 3 3 3 4 4 5 5 4 1 1 3 3 4 4 2 2 4 5
9 7 6 6 5 5 5 5 4 4 4 5 5 5 4 4 4 4 3 3 3 3 3 3 3 3 4 5 6 3 1 3 4 4 3 2 3 5
6 6 5 5 5 5 5 5 5 5 5 5 5 5 4 4 4 3 3 3 3 3 4 4 4 2 1 2 3 5 7 3 3 4 4 3 4 6
6 5 5 5 5 5 5 5 5 5 5 5 5 5 4 4 4 4 3 5 4 3 4 4 5 7 2 1 3 5 6 9 6 3 3 3 3 4
5 6 5 6 5 5 5 5 5 5 5 5 4 4 4 3 4 4 4 3 3 3 3 5 6 5 3 3 4 5 5 7 10 10 6 4 2 2
5 6 5 5 5 5 5 5 6 4 4 4 4 4 4 3 3 3 3 3 3 4 4 5 5 4 3 3 3 4 5 6 4 5 6 11 10 9
Wind_Direction
193 189 190 201 189 189 176 167 163 201 253 262 258 247 224 213 215 212 219 227 227 228 230 232 234 235 236 237 240 243 246 250 253 256 259 263 265 266
194 189 195 196 174 166 170 171 170 177 219 251 246 255 229 214 211 207 217 227 228 229 232 235 237 238 239 241 242 243 246 249 254 258 261 264 267 269
204 198 208 202 195 198 161 151 163 163 195 261 276 289 255 216 194 208 221 229 234 233 232 235 238 241 243 243 243 245 247 249 252 256 259 262 265 271
207 203 220 213 208 203 175 172 181 179 178 220 280 304 288 231 195 194 216 225 227 237 238 242 245 247 246 244 243 244 246 248 250 255 259 262 267 272
200 199 215 200 211 210 188 190 206 192 169 178 230 248 286 352 41 2 39 6 219 252 253 255 250 246 246 244 241 244 245 248 252 256 259 263 268 274
188 187 192 189 203 204 195 206 204 178 155 155 197 247 312 344 85 70 20 1 5 22 25 27 22 271 249 241 241 241 241 244 248 252 257 264 271 277
177 174 165 152 162 178 187 192 176 160 146 137 146 62 33 46 68 138 150 329 17 30 17 15 35 42 27 8 306 273 256 248 248 253 260 267 272 278
169 175 150 123 113 117 119 122 137 159 171 158 161 152 199 160 13 96 111 70 337 346 30 2 29 20 9 27 19 3 329 303 288 283 284 283 283 286
141 139 132 88 97 106 91 80 67 66 121 151 148 179 181 215 115 66 77 93 291 320 41 7 2 2 354 10 20 15 1 345 333 327 318 308 303 302
104 116 120 101 96 111 106 86 67 47 61 92 118 117 113 127 149 159 154 111 59 10 42 59 349 333 346 11 17 9 357 354 350 343 339 339 336 329
74 79 106 108 95 105 108 102 84 57 62 78 83 79 71 62 65 77 68 82 50 359 11 59 341 333 341 340 5 8 359 345 339 344 348 348 345 342
70 58 65 81 86 98 111 113 104 87 81 76 65 59 54 49 51 59 79 94 87 9 344 25 1 11 358 332 346 360 1 360 0 359 357 355 353 349
91 65 53 72 76 77 85 93 103 102 88 82 68 51 43 39 36 39 49 84 95 57 333 33 27 20 18 322 330 343 358 0 4 5 4 358 355 352
97 81 68 68 71 71 74 76 80 82 80 75 67 52 42 33 26 35 44 54 65 75 27 50 70 33 25 349 321 326 339 354 1 355 357 360 0 1
90 88 80 73 68 67 68 72 74 76 78 75 67 50 32 26 33 38 36 41 41 39 34 35 44 31 87 169 307 318 324 330 347 346 343 346 341 345
84 76 72 69 68 64 60 60 62 71 82 81 72 48 39 44 41 38 37 31 36 11 11 21 26 42 30 345 313 322 321 315 325 332 335 333 337 342
95 81 71 69 66 61 59 57 57 59 64 59 60 52 47 47 38 32 40 46 46 15 358 354 3 13 12 161 19 337 325 319 309 318 333 328 316 318
91 87 83 79 79 78 75 65 57 57 57 60 57 53 49 47 37 28 39 47 38 10 354 343 353 7 9 352 290 305 326 311 311 317 316 314 307 305
87 87 87 85 81 78 76 74 62 50 54 58 56 46 42 40 40 31 26 28 18 359 342 340 5 35 21 344 317 309 285 308 319 321 313 294 282 288
82 88 87 84 81 77 74 71 63 52 49 49 48 42 39 40 36 25 21 22 11 1 353 350 354 353 294 270 281 298 313 291 303 309 303 303 290 296
79 79 80 83 82 81 79 74 69 61 53 48 41 35 32 40 32 19 15 16 23 13 357 335 308 319 294 356 333 316 308 320 308 268 281 305 317 327
85 83 80 83 84 83 79 75 68 59 48 43 32 24 24 35 31 19 15 9 358 346 331 318 325 345 12 360 316 301 304 317 330 336 327 288 247 287
94 89 86 84 84 86 85 80 75 60 48 39 30 18 16 18 10 12 7 3 352 343 338 335 341 347 334 317 312 307 312 316 321 331 324 332 330 322
Height
1565 1567 1568 1569 1570 1570 1570 1570 1571 1570 1570 1571 1571 1571 1571 1572 1573 1573 1573 1573 1574 1574 1574 1574 1573 1573 1573 1573 1573 1573 1573 1573 1573 1572 1572 1572 1571 1571
1562 1563 1564 1565 1566 1567 1567 1567 1567 1568 1567 1568 1568 1568 1568 1568 1569 1569 1570 1570 1570 1570 1570 1570 1570 1570 1570 1570 1570 1569 1569 1569 1569 1568 1568 1567 1567 1566
1559 1560 1561 1562 1562 1563 1564 1564 1564 1564 1564 1564 1565 1565 1565 1565 1565 1566 1566 1566 1567 1567 1567 1567 1566 1566 1566 1566 1566 1565 1565 1564 1564 1564 1563 1562 1562 1561
1555 1556 1557 1558 1559 1560 1560 1560 1561 1561 1561 1561 1561 1561 1561 1562 1562 1562 1562 1563 1563 1563 1563 1562 1562 1562 1562 1561 1561 1561 1560 1560 1559 1559 1558 1558 1557 1556
1552 1553 1554 1555 1556 1556 1557 1557 1557 1558 1557 1558 1557 1558 1557 1558 1558 1558 1558 1558 1558 1558 1558 1558 1557 1557 1557 1556 1556 1556 1555 1555 1555 1554 1553 1552 1552 1551
1548 1549 1550 1551 1552 1553 1553 1554 1554 1554 1554 1554 1554 1554 1554 1554 1554 1554 1554 1554 1554 1554 1553 1553 1553 1553 1552 1552 1552 1551 1551 1550 1549 1549 1548 1547 1546 1545
1545 1546 1546 1547 1548 1549 1550 1550 1551 1551 1550 1550 1550 1550 1550 1550 1550 1549 1550 1550 1549 1549 1549 1549 1549 1549 1548 1548 1547 1547 1546 1545 1544 1544 1543 1542 1541 1540
1542 1543 1543 1544 1545 1546 1546 1547 1547 1547 1547 1547 1547 1546 1546 1546 1547 1546 1546 1546 1546 1546 1545 1545 1545 1545 1545 1544 1543 1543 1542 1541 1540 1539 1538 1537 1536 1535
1539 1540 1541 1541 1542 1542 1543 1543 1543 1543 1544 1544 1543 1543 1543 1543 1544 1543 1543 1543 1543 1543 1543 1542 1542 1541 1542 1541 1540 1540 1539 1538 1537 1535 1534 1533 1532 1531
1536 1537 1538 1538 1539 1539 1539 1539 1539 1540 1540 1540 1540 1540 1541 1541 1541 1541 1541 1540 1540 1540 1540 1540 1539 1539 1539 1538 1537 1536 1536 1535 1533 1532 1531 1530 1529 1527
1534 1535 1535 1535 1535 1536 1537 1536 1537 1537 1538 1538 1538 1538 1538 1539 1539 1539 1538 1538 1537 1538 1538 1538 1537 1537 1536 1535 1534 1533 1533 1532 1530 1529 1528 1526 1525 1524
1532 1532 1533 1533 1533 1534 1535 1535 1535 1536 1536 1536 1537 1537 1537 1537 1537 1536 1536 1536 1535 1536 1535 1535 1535 1534 1534 1533 1532 1531 1530 1529 1527 1526 1525 1523 1521 1520
1531 1532 1533 1533 1533 1533 1534 1534 1534 1535 1535 1536 1536 1536 1536 1536 1536 1536 1535 1535 1535 1534 1535 1534 1533 1532 1532 1531 1530 1529 1528 1526 1524 1523 1521 1520 1518 1516
1531 1532 1532 1533 1533 1532 1533 1533 1534 1535 1535 1535 1536 1536 1536 1536 1536 1536 1535 1535 1534 1534 1533 1533 1532 1531 1530 1529 1528 1526 1525 1524 1522 1520 1518 1516 1515 1513
1531 1532 1532 1533 1533 1533 1533 1534 1534 1535 1535 1535 1536 1536 1537 1536 1536 1536 1535 1534 1534 1533 1532 1531 1530 1529 1528 1527 1526 1524 1523 1521 1519 1518 1516 1513 1511 1509
1532 1533 1533 1534 1534 1534 1535 1536 1536 1536 1537 1537 1537 1538 1538 1537 1536 1536 1535 1534 1533 1532 1531 1530 1529 1528 1526 1525 1524 1522 1521 1519 1517 1515 1513 1511 1509 1507
1533 1534 1535 1535 1536 1536 1537 1538 1538 1539 1539 1539 1539 1539 1538 1537 1537 1536 1535 1534 1533 1532 1530 1529 1528 1526 1525 1524 1522 1521 1519 1517 1515 1513 1511 1508 1506 1504
1535 1536 1537 1538 1538 1539 1539 1540 1540 1541 1541 1540 1540 1540 1539 1538 1538 1537 1536 1534 1533 1532 1530 1529 1527 1525 1524 1523 1522 1519 1518 1516 1513 1511 1509 1506 1503 1502
1537 1538 1539 1540 1541 1541 1541 1542 1542 1542 1542 1541 1541 1541 1540 1539 1538 1537 1536 1534 1533 1532 1530 1529 1527 1524 1523 1521 1520 1519 1517 1514 1511 1509 1507 1504 1501 1499
1540 1541 1542 1542 1543 1543 1543 1543 1543 1543 1543 1542 1542 1541 1541 1540 1539 1537 1536 1535 1533 1532 1531 1529 1527 1525 1523 1522 1519 1518 1516 1513 1510 1507 1504 1502 1499 1497
1543 1544 1544 1545 1545 1545 1545 1545 1544 1544 1544 1543 1542 1542 1541 1540 1539 1538 1537 1535 1534 1532 1530 1529 1527 1525 1523 1521 1519 1516 1514 1512 1509 1506 1502 1499 1496 1494
1546 1546 1547 1547 1547 1547 1547 1546 1545 1545 1544 1544 1543 1542 1541 1540 1539 1538 1537 1535 1534 1532 1530 1529 1526 1524 1522 1520 1517 1515 1512 1510 1507 1505 1502 1499 1496 1492
1549 1549 1549 1549 1549 1548 1548 1547 1546 1545 1544 1544 1543 1542 1541 1541 1540 1538 1537 1536 1534 1532 1530 1528 1526 1523 1521 1519 1516 1513 1511 1508 1505 1502 1500 1498 1495 1493